| time (UTC) | temp C | wind direction | speed KPH | gust KPH | rain 1hr cm | rain 24hr cm | rain mn cm | humidity % | barometer mb |
| 20260509053004 | 21 | 20 | 0.0 | 3.2 | 0.00 | 0.00 | 0.00 | 32 | 1022.6 |
| 20260509052025 | 21 | 32 | 0.0 | 3.2 | 0.00 | 0.00 | 0.00 | 33 | 1022.5 |
| 20260509051004 | 21 | 334 | 0.0 | 3.2 | 0.00 | 0.00 | 0.00 | 31 | 1022.5 |
| 20260509050005 | 22 | 341 | 1.6 | 4.8 | 0.00 | 0.00 | 0.00 | 31 | 1022.5 |
| 20260509045005 | 22 | 27 | 1.6 | 3.2 | 0.00 | 0.00 | 0.00 | 32 | 1022.5 |
| 20260509044005 | 22 | 273 | 1.6 | 3.2 | 0.00 | 0.00 | 0.00 | 31 | 1022.6 |
| 20260509043005 | 23 | 345 | 0.0 | 3.2 | 0.00 | 0.00 | 0.00 | 31 | 1022.6 |
| 20260509042026 | 22 | 357 | 1.6 | 3.2 | 0.00 | 0.00 | 0.00 | 31 | 1022.6 |
| 20260509041004 | 23 | 317 | 1.6 | 6.4 | 0.00 | 0.00 | 0.00 | 31 | 1022.6 |
| 20260509040004 | 22 | 340 | 1.6 | 6.4 | 0.00 | 0.00 | 0.00 | 30 | 1022.6 |
| 20260509035025 | 22 | 273 | 1.6 | 11.3 | 0.00 | 0.00 | 0.00 | 32 | 1022.6 |
| 20260509034026 | 22 | 327 | 1.6 | 6.4 | 0.00 | 0.00 | 0.00 | 31 | 1022.6 |
| 20260509033005 | 22 | 253 | 3.2 | 9.7 | 0.00 | 0.00 | 0.00 | 34 | 1022.7 |
| 20260509032005 | 22 | 336 | 0.0 | 6.4 | 0.00 | 0.00 | 0.00 | 33 | 1022.7 |
| 20260509031007 | 23 | 303 | 1.6 | 6.4 | 0.00 | 0.00 | 0.00 | 33 | 1022.8 |
| 20260509030005 | 22 | 272 | 1.6 | 11.3 | 0.00 | 0.00 | 0.00 | 34 | 1023.0 |
| 20260509025005 | 22 | 331 | 0.0 | 8.0 | 0.00 | 0.00 | 0.00 | 34 | 1023.1 |
| 20260509024005 | 22 | 299 | 1.6 | 8.0 | 0.00 | 0.00 | 0.00 | 34 | 1023.3 |
| 20260509023005 | 22 | 306 | 1.6 | 9.7 | 0.00 | 0.00 | 0.00 | 36 | 1023.5 |
| 20260509022026 | 22 | 322 | 1.6 | 6.4 | 0.00 | 0.00 | 0.00 | 34 | 1023.5 |
| 20260509021006 | 22 | 314 | 1.6 | 9.7 | 0.00 | 0.00 | 0.00 | 35 | 1023.6 |
| 20260509020005 | 22 | 323 | 1.6 | 6.4 | 0.00 | 0.00 | 0.00 | 35 | 1023.9 |
| 20260509015006 | 21 | 37 | 1.6 | 3.2 | 0.00 | 0.00 | 0.00 | 34 | 1024.0 |
| 20260509014007 | 21 | 43 | 0.0 | 3.2 | 0.00 | 0.00 | 0.00 | 37 | 1024.1 |
| 20260509013005 | 21 | 348 | 1.6 | 4.8 | 0.00 | 0.00 | 0.00 | 36 | 1024.1 |
| 20260509012005 | 21 | 11 | 1.6 | 4.8 | 0.00 | 0.00 | 0.00 | 36 | 1024.3 |
| 20260509011005 | 21 | 28 | 0.0 | 3.2 | 0.00 | 0.00 | 0.00 | 39 | 1024.5 |
| 20260509010005 | 20 | 59 | 0.0 | 1.6 | 0.00 | 0.00 | 0.00 | 41 | 1024.6 |
| 20260509005005 | 19 | 2 | 0.0 | 3.2 | 0.00 | 0.00 | 0.00 | 42 | 1024.6 |
| 20260509004005 | 19 | 60 | 0.0 | 1.6 | 0.00 | 0.00 | 0.00 | 44 | 1024.7 |
| 20260509003006 | 18 | 152 | 0.0 | 3.2 | 0.00 | 0.00 | 0.00 | 42 | 1024.8 |
| 20260509002005 | 18 | 60 | 0.0 | 1.6 | 0.00 | 0.00 | 0.00 | 43 | 1024.8 |
| 20260509001005 | 17 | 161 | 1.6 | 4.8 | 0.00 | 0.00 | 0.00 | 47 | 1024.9 |
| 20260509000005 | 17 | 207 | 0.0 | 6.4 | 0.00 | 0.00 | 0.00 | 46 | 1024.9 |
| 20260508235007 | 16 | 221 | 0.0 | 3.2 | 0.00 | 0.00 | 0.00 | 48 | 1024.9 |
| 20260508234006 | 15 | 250 | 0.0 | 4.8 | 0.00 | 0.00 | 0.00 | 55 | 1024.9 |
| 20260508233004 | 14 | 237 | 1.6 | 4.8 | 0.00 | 0.00 | 0.00 | 58 | 1025.0 |
| 20260508232005 | 13 | 329 | 0.0 | 1.6 | 0.00 | 0.00 | 0.00 | 59 | 1025.1 |
| 20260508231005 | 12 | 317 | 0.0 | 1.6 | 0.00 | 0.00 | 0.00 | 61 | 1025.1 |
| 20260508230005 | 12 | 250 | 0.0 | 1.6 | 0.00 | 0.00 | 0.00 | 63 | 1025.1 |
| 20260508225005 | 11 | 187 | 0.0 | 1.6 | 0.00 | 0.00 | 0.00 | 65 | 1025.1 |
| 20260508224005 | 10 | 199 | 0.0 | 1.6 | 0.00 | 0.00 | 0.00 | 69 | 1025.1 |
| 20260508223007 | 9 | 180 | 0.0 | 1.6 | 0.00 | 0.00 | 0.00 | 71 | 1025.0 |
| 20260508222005 | 8 | 180 | 0.0 | 3.2 | 0.00 | 0.00 | 0.00 | 74 | 1024.9 |
| 20260508221005 | 7 | 191 | 0.0 | 3.2 | 0.00 | 0.00 | 0.00 | 76 | 1024.8 |
| 20260508220027 | 6 | 199 | 0.0 | 3.2 | 0.00 | 0.00 | 0.00 | 79 | 1024.7 |
| 20260508215005 | 5 | 196 | 0.0 | 1.6 | 0.00 | 0.00 | 0.00 | 83 | 1024.6 |
| 20260508214005 | 4 | 196 | 0.0 | 1.6 | 0.00 | 0.00 | 0.00 | 87 | 1024.6 |
| 20260508213005 | 3 | 181 | 0.0 | 3.2 | 0.00 | 0.00 | 0.00 | 90 | 1024.6 |
| 20260508212004 | 2 | 0 | 0.0 | 0.0 | 0.00 | 0.00 | 0.00 | 91 | 1024.5 |
| 20260508211005 | 1 | 0 | 0.0 | 0.0 | 0.00 | 0.00 | 0.00 | 92 | 1024.4 |
| 20260508210005 | 1 | 0 | 0.0 | 0.0 | 0.00 | 0.00 | 0.00 | 92 | 1024.3 |
| 20260508205026 | 0 | 0 | 0.0 | 0.0 | 0.00 | 0.00 | 0.00 | 92 | 1024.2 |
| 20260508204006 | 0 | 181 | 0.0 | 1.6 | 0.00 | 0.00 | 0.00 | 92 | 1024.1 |
| 20260508203005 | 0 | 177 | 0.0 | 1.6 | 0.00 | 0.00 | 0.00 | 92 | 1024.0 |
| 20260508202025 | 0 | 176 | 0.0 | 1.6 | 0.00 | 0.00 | 0.00 | 92 | 1024.0 |
| 20260508201006 | 1 | 0 | 0.0 | 0.0 | 0.00 | 0.00 | 0.00 | 92 | 1023.9 |
| 20260508200004 | 1 | 0 | 0.0 | 0.0 | 0.00 | 0.00 | 0.00 | 91 | 1023.9 |
| 20260508195025 | 1 | 180 | 0.0 | 1.6 | 0.00 | 0.00 | 0.00 | 91 | 1023.6 |
| 20260508194005 | 1 | 175 | 0.0 | 3.2 | 0.00 | 0.00 | 0.00 | 91 | 1023.5 |
| 20260508193006 | 1 | 147 | 0.0 | 1.6 | 0.00 | 0.00 | 0.00 | 91 | 1023.3 |
| 20260508192006 | 1 | 117 | 0.0 | 1.6 | 0.00 | 0.00 | 0.00 | 91 | 1023.1 |
| 20260508191004 | 1 | 0 | 0.0 | 0.0 | 0.00 | 0.00 | 0.00 | 91 | 1023.1 |
| 20260508190004 | 1 | 0 | 0.0 | 0.0 | 0.00 | 0.00 | 0.00 | 91 | 1023.1 |
| 20260508185007 | 1 | 0 | 0.0 | 0.0 | 0.00 | 0.00 | 0.00 | 91 | 1022.9 |
| 20260508184025 | 2 | 49 | 0.0 | 1.6 | 0.00 | 0.00 | 0.00 | 91 | 1022.9 |
| 20260508183004 | 2 | 0 | 0.0 | 0.0 | 0.00 | 0.00 | 0.00 | 90 | 1022.8 |
| 20260508182006 | 2 | 44 | 0.0 | 1.6 | 0.00 | 0.00 | 0.00 | 90 | 1023.0 |
| 20260508181027 | 2 | 44 | 0.0 | 1.6 | 0.00 | 0.00 | 0.00 | 90 | 1022.8 |
| 20260508180006 | 2 | 98 | 0.0 | 1.6 | 0.00 | 0.00 | 0.00 | 90 | 1022.8 |
| 20260508175004 | 2 | 0 | 0.0 | 0.0 | 0.00 | 0.00 | 0.00 | 90 | 1022.7 |
| 20260508174006 | 2 | 180 | 0.0 | 1.6 | 0.00 | 0.00 | 0.00 | 90 | 1022.6 |
| 20260508173006 | 2 | 0 | 0.0 | 0.0 | 0.00 | 0.00 | 0.00 | 90 | 1022.6 |
| 20260508172004 | 2 | 0 | 0.0 | 0.0 | 0.00 | 0.00 | 0.00 | 89 | 1022.6 |
| 20260508171004 | 2 | 178 | 0.0 | 1.6 | 0.00 | 0.00 | 0.00 | 89 | 1022.6 |
| 20260508170005 | 2 | 184 | 0.0 | 1.6 | 0.00 | 0.00 | 0.00 | 89 | 1022.4 |
| 20260508165004 | 2 | 0 | 0.0 | 0.0 | 0.00 | 0.00 | 0.00 | 89 | 1022.5 |
| 20260508164004 | 2 | 0 | 0.0 | 0.0 | 0.00 | 0.00 | 0.00 | 88 | 1022.6 |
| 20260508163004 | 2 | 0 | 0.0 | 0.0 | 0.00 | 0.00 | 0.00 | 87 | 1022.7 |
| 20260508162004 | 2 | 0 | 0.0 | 0.0 | 0.00 | 0.00 | 0.00 | 88 | 1022.7 |
| 20260508161025 | 2 | 190 | 0.0 | 1.6 | 0.00 | 0.00 | 0.00 | 87 | 1022.8 |
| 20260508160006 | 2 | 179 | 0.0 | 1.6 | 0.00 | 0.00 | 0.00 | 87 | 1022.8 |
| 20260508155004 | 2 | 173 | 0.0 | 1.6 | 0.00 | 0.00 | 0.00 | 87 | 1022.8 |
| 20260508154006 | 3 | 196 | 0.0 | 1.6 | 0.00 | 0.00 | 0.00 | 86 | 1022.8 |
| 20260508153006 | 3 | 221 | 0.0 | 1.6 | 0.00 | 0.00 | 0.00 | 86 | 1022.9 |
| 20260508152004 | 3 | 0 | 0.0 | 0.0 | 0.00 | 0.00 | 0.00 | 86 | 1022.9 |
| 20260508151025 | 3 | 0 | 0.0 | 0.0 | 0.00 | 0.00 | 0.00 | 85 | 1022.9 |
| 20260508150005 | 3 | 0 | 0.0 | 0.0 | 0.00 | 0.00 | 0.00 | 84 | 1023.0 |
| 20260508145004 | 3 | 195 | 0.0 | 1.6 | 0.00 | 0.00 | 0.00 | 84 | 1022.9 |
| 20260508144006 | 3 | 179 | 0.0 | 1.6 | 0.00 | 0.00 | 0.00 | 83 | 1022.8 |
| 20260508143006 | 3 | 171 | 0.0 | 1.6 | 0.00 | 0.00 | 0.00 | 83 | 1022.9 |
| 20260508142004 | 3 | 0 | 0.0 | 0.0 | 0.00 | 0.00 | 0.00 | 83 | 1022.9 |
| 20260508141027 | 3 | 0 | 0.0 | 0.0 | 0.00 | 0.00 | 0.00 | 83 | 1023.0 |
| 20260508140025 | 3 | 244 | 0.0 | 1.6 | 0.00 | 0.00 | 0.00 | 83 | 1023.0 |
| 20260508135006 | 3 | 243 | 0.0 | 1.6 | 0.00 | 0.00 | 0.00 | 82 | 1023.0 |
| 20260508134006 | 3 | 236 | 0.0 | 1.6 | 0.00 | 0.00 | 0.00 | 81 | 1023.1 |
| 20260508133004 | 3 | 233 | 0.0 | 1.6 | 0.00 | 0.00 | 0.00 | 81 | 1023.1 |
| 20260508132004 | 3 | 239 | 0.0 | 1.6 | 0.00 | 0.00 | 0.00 | 81 | 1023.2 |
| 20260508131004 | 3 | 224 | 0.0 | 1.6 | 0.00 | 0.00 | 0.00 | 81 | 1023.2 |
| 20260508130005 | 4 | 198 | 0.0 | 1.6 | 0.00 | 0.00 | 0.00 | 80 | 1023.2 |
| 20260508125025 | 4 | 186 | 0.0 | 1.6 | 0.00 | 0.00 | 0.00 | 80 | 1023.2 |
| 20260508124004 | 4 | 198 | 0.0 | 1.6 | 0.00 | 0.00 | 0.00 | 80 | 1023.3 |
| 20260508123004 | 4 | 191 | 0.0 | 1.6 | 0.00 | 0.00 | 0.00 | 80 | 1023.3 |
| 20260508122004 | 5 | 180 | 0.0 | 1.6 | 0.00 | 0.00 | 0.00 | 81 | 1023.2 |
| 20260508121006 | 5 | 196 | 0.0 | 1.6 | 0.00 | 0.00 | 0.00 | 81 | 1023.2 |
| 20260508120005 | 5 | 0 | 0.0 | 0.0 | 0.00 | 0.00 | 0.00 | 80 | 1023.3 |
| 20260508115027 | 5 | 188 | 0.0 | 1.6 | 0.00 | 0.00 | 0.00 | 79 | 1023.4 |
| 20260508114004 | 5 | 184 | 0.0 | 1.6 | 0.00 | 0.00 | 0.00 | 79 | 1023.2 |
| 20260508113005 | 5 | 0 | 0.0 | 0.0 | 0.00 | 0.00 | 0.00 | 79 | 1023.3 |
| 20260508112004 | 5 | 0 | 0.0 | 0.0 | 0.00 | 0.00 | 0.00 | 77 | 1023.3 |
| 20260508111025 | 6 | 0 | 0.0 | 0.0 | 0.00 | 0.00 | 0.00 | 76 | 1023.2 |
| 20260508110004 | 6 | 0 | 0.0 | 0.0 | 0.00 | 0.00 | 0.00 | 75 | 1023.2 |
| 20260508105004 | 6 | 0 | 0.0 | 0.0 | 0.00 | 0.00 | 0.00 | 73 | 1023.1 |
| 20260508104004 | 6 | 184 | 0.0 | 1.6 | 0.00 | 0.00 | 0.00 | 73 | 1023.0 |
| 20260508103006 | 6 | 182 | 0.0 | 1.6 | 0.00 | 0.00 | 0.00 | 72 | 1023.0 |
| 20260508102006 | 7 | 180 | 0.0 | 1.6 | 0.00 | 0.00 | 0.00 | 72 | 1023.0 |
| 20260508101004 | 7 | 0 | 0.0 | 0.0 | 0.00 | 0.00 | 0.00 | 71 | 1022.8 |
| 20260508100006 | 7 | 0 | 0.0 | 0.0 | 0.00 | 0.00 | 0.00 | 70 | 1022.8 |
| 20260508095004 | 8 | 180 | 0.0 | 1.6 | 0.00 | 0.00 | 0.00 | 68 | 1022.7 |
| 20260508094006 | 8 | 180 | 0.0 | 1.6 | 0.00 | 0.00 | 0.00 | 68 | 1022.5 |
| 20260508093005 | 8 | 0 | 0.0 | 0.0 | 0.00 | 0.00 | 0.00 | 66 | 1022.3 |
| 20260508092026 | 8 | 0 | 0.0 | 0.0 | 0.00 | 0.00 | 0.00 | 65 | 1022.2 |
| 20260508091025 | 9 | 180 | 0.0 | 1.6 | 0.00 | 0.00 | 0.00 | 64 | 1022.1 |
| 20260508090004 | 10 | 180 | 0.0 | 1.6 | 0.00 | 0.00 | 0.00 | 62 | 1022.2 |
| 20260508085004 | 10 | 0 | 0.0 | 0.0 | 0.00 | 0.00 | 0.00 | 59 | 1022.0 |
| 20260508084005 | 11 | 178 | 0.0 | 3.2 | 0.00 | 0.00 | 0.00 | 56 | 1022.0 |
| 20260508083026 | 12 | 198 | 1.6 | 3.2 | 0.00 | 0.00 | 0.00 | 55 | 1021.9 |
| 20260508082004 | 12 | 201 | 0.0 | 3.2 | 0.00 | 0.00 | 0.00 | 54 | 1021.8 |
| 20260508081025 | 12 | 198 | 0.0 | 4.8 | 0.00 | 0.00 | 0.00 | 53 | 1021.7 |
| 20260508080005 | 12 | 209 | 1.6 | 6.4 | 0.00 | 0.00 | 0.00 | 52 | 1021.6 |
| 20260508075025 | 13 | 194 | 0.0 | 8.0 | 0.00 | 0.00 | 0.00 | 51 | 1021.6 |
| 20260508074005 | 13 | 200 | 1.6 | 4.8 | 0.00 | 0.00 | 0.00 | 49 | 1021.5 |
| 20260508073004 | 13 | 201 | 1.6 | 11.3 | 0.00 | 0.00 | 0.00 | 48 | 1021.3 |
| 20260508072004 | 14 | 192 | 1.6 | 6.4 | 0.00 | 0.00 | 0.00 | 47 | 1021.2 |
| 20260508071004 | 15 | 190 | 1.6 | 8.0 | 0.00 | 0.00 | 0.00 | 46 | 1021.1 |
| 20260508070006 | 15 | 188 | 1.6 | 12.9 | 0.00 | 0.00 | 0.00 | 44 | 1020.9 |
| 20260508065003 | 15 | 190 | 1.6 | 11.3 | 0.00 | 0.00 | 0.00 | 43 | 1020.8 |
| 20260508064026 | 16 | 198 | 3.2 | 16.1 | 0.00 | 0.00 | 0.00 | 42 | 1020.8 |
| 20260508063004 | 16 | 207 | 3.2 | 16.1 | 0.00 | 0.00 | 0.00 | 41 | 1020.7 |
| 20260508062005 | 16 | 212 | 4.8 | 22.5 | 0.00 | 0.00 | 0.00 | 41 | 1020.6 |
| 20260508061005 | 17 | 208 | 1.6 | 14.5 | 0.00 | 0.00 | 0.00 | 40 | 1020.4 |
| 20260508060024 | 17 | 225 | 4.8 | 17.7 | 0.00 | 0.00 | 0.00 | 40 | 1020.4 |
| 20260508055004 | 17 | 232 | 8.0 | 27.4 | 0.00 | 0.00 | 0.00 | 41 | 1020.3 |
| 20260508054004 | 17 | 229 | 4.8 | 19.3 | 0.00 | 0.00 | 0.00 | 41 | 1020.3 |